Doha, Qatar

12:23 PM AST on July 25, 2016 (GMT +0300)
Doha International

Weather History for OTBD - March, 2014

Change the Weather History Date:

Monday, March 24, 2014

  Actual Average Record
Temperature  
Mean Temperature 74 °F -  
Max Temperature 82 °F 87 °F 89 °F (1998)
Min Temperature 65 °F 68 °F 62 °F (1997)
Cooling Degree Days 8    
Growing Degree Days 24 (Base 50)    
Moisture  
Dew Point 46 °F    
Average Humidity 42    
Maximum Humidity 88    
Minimum Humidity 6    
Precipitation  
Precipitation 0.00 in 0.01 in - ()
Sea Level Pressure  
Sea Level Pressure 29.93 in    
Wind  
Wind Speed 5 mph ()    
Max Wind Speed 12 mph    
Max Gust Speed -    
Visibility 8.4 miles    
Events      
Averages and records for this station are not official NWS values.
T = Trace of Precipitation, MM = Missing Value Source: Averaged Metar Reports

Daily Weather History Graph

Daily Weather History Graph

Search for Another Location

Airport or City:

Trip Planner

Search our weather history database for the weather conditions in past years. The results will help you decide how hot, cold, wet, or windy it might be!

Date:

Astronomy

Mar. 24, 2014 Rise Set
Actual Time 5:33 AM AST 5:46 PM AST
Civil Twilight 5:11 AM AST 6:09 PM AST
Nautical Twilight 4:44 AM AST 6:36 PM AST
Astronomical Twilight 4:17 AM AST 7:03 PM AST
Moon 12:08 AM AST (3/24) 11:20 AM AST (3/24)
Length of Visible Light 12h 58m
Length of Day
12h 12m
Waning Gibbous, 47% of the Moon is Illuminated
Mar 24
Waning Gibbous
Mar 30
New
Apr 7
First Quarter
Apr 15
Full
Apr 22
Last Quarter

Hourly Weather History & Observations

Time (AST) Temp. Dew Point Humidity Pressure Visibility Wind Dir Wind Speed Gust Speed Precip Events Conditions
12:00 AM 73 °F 46 °F 27% 29.94 in 10 mi NW 4.6 mph - -  
12:00 AM 73.4 °F 46.4 °F 38% 29.92 in - NW 4.6 mph - N/A   Clear
1:00 AM 71.6 °F 42.8 °F 35% 29.89 in - NNW 5.8 mph - N/A   Clear
2:00 AM 73.4 °F 39.2 °F 29% - - WNW 3.5 mph - N/A   Clear
2:30 AM 69.8 °F 44.6 °F 40% 29.89 in - WSW 4.6 mph - N/A   Clear
3:00 AM 69 °F 45 °F 31% 29.92 in 10 mi WSW 4.6 mph - -  
3:00 AM 68.0 °F 44.6 °F 43% 29.92 in - WSW 4.6 mph - N/A   Clear
3:30 AM 68.0 °F 48.2 °F 49% 29.92 in - WSW 4.6 mph - N/A   Clear
4:00 AM 68.0 °F 48.2 °F 49% 29.92 in - Variable 2.3 mph - N/A   Clear
5:00 AM 66.2 °F 48.2 °F 52% 29.92 in - Variable 2.3 mph - N/A   Clear
6:00 AM 66 °F 49 °F 43% 29.96 in 10 mi West 3.5 mph - -   Clear
6:00 AM 66.2 °F 48.2 °F 52% 29.95 in - West 3.5 mph - N/A   Clear
6:30 AM 68.0 °F 48.2 °F 49% 29.95 in - NNW 3.5 mph - N/A   Clear
7:00 AM 71.6 °F 48.2 °F 43% 29.95 in - Variable 2.3 mph - N/A   Clear
8:00 AM 75.2 °F 50.0 °F 41% 29.98 in - SW 3.5 mph - N/A   Clear
8:30 AM 77.0 °F 39.2 °F 26% 29.98 in - NNE 5.8 mph - N/A   Clear
9:00 AM 78 °F 36 °F 13% 29.99 in 9 mi NE 5.8 mph - -   Clear
9:00 AM 78.8 °F 35.6 °F 21% 29.98 in - NE 5.8 mph - N/A   Volcanic Ash
9:30 AM 78.8 °F 33.8 °F 20% 29.98 in - North 5.8 mph - N/A   Clear
10:00 AM 80.6 °F 30.2 °F 16% 29.98 in - North 8.1 mph - N/A   Clear
10:30 AM 80.6 °F 26.6 °F 14% 29.98 in - NNE 8.1 mph - N/A   Clear
11:00 AM 82.4 °F 26.6 °F 13% 29.98 in - NE 5.8 mph - N/A   Clear
11:30 AM 82.4 °F 24.8 °F 12% 29.95 in - NNE 4.6 mph - N/A   Clear
12:00 PM 82 °F 25 °F 6% 29.96 in 11 mi North 6.9 mph - -   Scattered Clouds
12:00 PM 82.4 °F 24.8 °F 12% 29.95 in - North 6.9 mph - N/A   Clear
12:30 PM 82.4 °F 24.8 °F 12% 29.95 in - North 6.9 mph - N/A   Clear
1:00 PM 82.4 °F 19.4 °F 10% 29.92 in - NE 9.2 mph - N/A   Clear
1:30 PM 80.6 °F 23.0 °F 12% 29.92 in - NE 10.4 mph - N/A   Clear
2:00 PM 80.6 °F 33.8 °F 18% 29.92 in - ENE 11.5 mph - N/A   Clear
2:30 PM 80.6 °F 41.0 °F 24% 29.89 in - East 11.5 mph - N/A   Clear
3:00 PM 78 °F 48 °F 24% 29.91 in 11 mi East 11.5 mph - -   Scattered Clouds
3:00 PM 78.8 °F 48.2 °F 34% 29.89 in - East 11.5 mph - N/A   Clear
3:30 PM 77.0 °F 53.6 °F 44% 29.89 in - ENE 11.5 mph - N/A   Clear
4:00 PM 77.0 °F 57.2 °F 50% 29.89 in - ENE 10.4 mph - N/A   Clear
5:00 PM 75.2 °F 59.0 °F 57% 29.92 in - East 9.2 mph - N/A   Clear
6:00 PM 73 °F 62 °F 60% 29.93 in 7 mi NNE 9.2 mph - -   Scattered Clouds
6:00 PM 73.4 °F 62.6 °F 69% 29.92 in - NNE 9.2 mph - N/A   Clear
6:30 PM 73.4 °F 62.6 °F 69% 29.92 in - NNE 9.2 mph - N/A   Clear
7:00 PM 71.6 °F 64.4 °F 78% 29.92 in - NNE 8.1 mph - N/A   Clear
7:30 PM 71.6 °F 64.4 °F 78% 29.92 in - NNE 6.9 mph - N/A   Clear
8:00 PM 71.6 °F 64.4 °F 78% 29.92 in - NNE 6.9 mph - N/A   Clear
9:00 PM 71.6 °F 66.2 °F 83% 29.95 in 6.2 mi North 6.9 mph - N/A   Partly Cloudy
9:30 PM 71.6 °F 66.2 °F 83% 29.95 in 6.2 mi NE 6.9 mph - N/A   Partly Cloudy
10:00 PM 71.6 °F 66.2 °F 83% 29.92 in - NE 5.8 mph - N/A   Clear
10:30 PM 71.6 °F 64.4 °F 78% 29.92 in 6.2 mi North 4.6 mph - N/A   Partly Cloudy
11:00 PM 69.8 °F 66.2 °F 88% 29.92 in 6.2 mi NNE 4.6 mph - N/A   Partly Cloudy
11:30 PM 69.8 °F 66.2 °F 88% 29.92 in - North 4.6 mph - N/A   Clear